Current weather by "City, St" or "zip code"  
 

Current Conditions: Marion / Wytheville, VA

Fair


53.0 F

Last Updated on Sep 22 2020, 9:55 pm EDT
Humidity: 91%
Wind Speed: W 3.5 mph
Barometer 30.20 in
Dewpoint: 50.5 F
Visibility: 10.00 mi
Precip: --
Heat Index: NA
Wind Chill: NA
Current conditions at:

Marion / Wytheville, VA (KMKJ)

Lat: 36.9 Lon: 81.35

Local Radar Image active severe weather and emergency alerts image image weather storm and storm spotter reports image weather observation monitoring service image
Local
Radar
Active
Alerts
Storm Reports Obs
Monitoring

Sign-up For Email & Text Message Weather Alert Notification Services



Advertise Here

Observation History for Marion / Wytheville, VA


Time Wind
(mph)
Vis
(mi)
Weather Precip (in) Temperature (F) Relative
Humidity
Wind
Chill
(F)
Heat
Index
(F)
Pressure
Air Dwpt altimeter
(in)
sea level
(mb)
Rmks
9:55 pm EDT W 3.5 10.00 Fair -- 53.0 50.5 91% NA NA 30.20 M
8:55 pm EDT N 0.0 10.00 Fair -- 55.0 52.2 90% NA NA 30.20 M
7:55 pm EDT N 0.0 10.00 Fair -- 58.0 49.5 73% NA NA 30.20 M
6:55 pm EDT W 6.9 10.00 Fair -- 63.0 48.0 59% 63 NA 30.20 M
5:55 pm EDT W 9.2 10.00 Fair -- 66.0 49.6 56% NA NA 30.20 M
4:55 pm EDT W 9.2 10.00 Fair -- 68.0 49.3 51% NA NA 30.19 M
3:55 pm EDT W 6.9 10.00 Fair -- 70.0 51.1 52% NA NA 30.21 M
2:55 pm EDT W 4.6 10.00 Fair -- 69.0 50.5 52% NA NA 30.23 M
1:55 pm EDT W 11.5 10.00 Fair -- 68.0 50.5 54% NA NA 30.26 M
12:55 pm EDT W 6.9 10.00 Fair -- 65.0 48.9 56% NA NA 30.29 M
11:55 am EDT SW 8.1 10.00 Fair -- 63.0 49.5 62% 63 NA 30.31 M
10:55 am EDT SW 10.4 10.00 Fair -- 56.0 46.4 70% 53 NA 30.34 M
9:55 am EDT W 9.2 10.00 Fair -- 51.0 47.3 86% 48 NA 30.35 M
8:55 am EDT SW 3.5 10.00 Fair -- 45.0 44.8 99% NA NA 30.35 M
7:55 am EDT W 3.5 7.00 Partly Cloudy -- 38.0 38.1 100% NA NA 30.35 M
6:55 am EDT N 0.0 0.25 Fog -- 37.0 36.9 100% NA NA 30.34 M
5:55 am EDT N 0.0 0.25 Fog -- 38.0 37.8 100% NA NA 30.35 M
4:55 am EDT N 0.0 0.25 Fog -- 39.0 38.8 100% NA NA 30.35 M
3:55 am EDT N 0.0 0.50 Fog -- 40.0 40.3 100% NA NA 30.37 M
2:55 am EDT N 0.0 10.00 Fair -- 42.0 41.7 99% NA NA 30.38 M
1:55 am EDT N 0.0 3.00 Fog/Mist -- 43.0 42.4 99% NA NA 30.40 M
12:55 am EDT N 0.0 10.00 Fair -- 45.0 44.2 97% NA NA 30.41 M
11:55 pm EDT N 0.0 10.00 Fair -- 46.0 44.8 96% NA NA 30.42 M
10:55 pm EDT N 0.0 10.00 Fair -- 48.0 45.5 92% NA NA 30.43 M

Regional Weather Observation


Bluefield, Mercer County Airport, WV (KBLF)

Fair
53.0 F

Marion / Wytheville, VA (KMKJ)

Fair
53.0 F

Pineville, Kee Field Airport, WV (KI16)

Fair
53.0 F

Beckley, Raleigh County Memorial Airport, WV (KBKW)

Fair
53.0 F

Jefferson - Ashe County Airport, NC (KGEV)

Fair
56.0 F

Abingdon, VA (KVJI)

Fair
53.0 F